O3B FM12 (40350 NORAD) Tracking and Keplerian Element Data

This shows tracking and keplerian element data for the satellite.

Feedback or suggestion? Click here.




ElementValue
Catalog40350
NameO3B FM12
Epoch Orbit18497
Epoch Day34.47238269
Epoch Year2025
RAAN352.9855
Inclination0.0497
Eccentricity0.0002811
Argument of Perigee320.7181
Mean Anonmoly46.2685
Mean Motion5.00115681
Decay Rate-1.3E-07
L11 40350U 14083C 25034.47238269 -.00000013 00000+0 00000+0 0 9996
L22 40350 0.0497 352.9855 0002811 320.7181 46.2685 5.00115681184972



Live tracking and technical data element details for O3B FM12 (NORAD 40350). O3B FM12 can be tracked NOW for your location showing map with azimuth and elevation plus other details from your city location.







IsCatalogInMostPopularTable: catalog: 40350, numindb: 503
Update: records affected: 1



GetName: 40350 O3B FM12

Hit Count: updated at: Sat, 24 May 2025 15:55:32 GMT